Lid_Strength_Index
16 19 20 22 20 20 20 20 21 20 18 19 19 20 18 16 18 18 17 17 16 15 13 13 12 11 11 10 10 9 9 8 8 8 8 7 6 4 2 1 0 0 -0 0
19 20 19 17 18 18 19 20 22 19 18 19 20 20 17 17 18 17 17 17 16 15 14 12 12 11 9 9 8 9 9 9 8 7 6 5 6 5 5 3 1 0 1 1
21 19 17 18 19 19 20 20 21 21 19 20 20 22 21 19 17 16 16 15 15 15 14 13 12 10 10 10 10 9 8 8 8 7 6 6 6 6 6 6 4 2 0 1
20 18 18 19 19 19 20 19 19 19 22 28 21 27 22 19 18 17 16 16 16 15 14 13 12 11 11 10 10 10 9 8 7 7 7 8 8 8 7 7 6 6 3 0
20 19 19 19 19 18 20 18 19 19 25 27 27 29 23 20 19 18 16 16 16 15 14 13 13 12 10 10 10 10 9 8 7 7 8 8 9 8 7 6 6 5 5 3
20 17 18 18 18 17 17 19 20 21 26 31 28 27 24 22 20 19 17 16 15 15 14 13 12 12 11 9 9 9 9 9 8 8 7 8 8 8 8 7 7 6 5 4
19 19 18 17 19 18 18 22 28 28 30 27 24 27 22 19 18 18 17 16 16 15 15 14 13 12 10 10 10 10 10 10 9 9 8 8 8 8 8 8 7 7 6 5
24 23 18 17 19 20 20 22 27 30 30 28 23 27 22 18 17 17 17 16 16 15 15 14 13 12 10 10 11 11 11 11 10 10 10 9 9 9 8 8 8 7 7 6
23 22 19 17 18 19 20 22 21 30 34 31 27 24 20 18 18 17 17 17 17 16 14 14 12 11 11 12 12 11 11 11 10 10 10 10 9 9 9 9 8 8 7 6
20 23 20 19 18 18 19 18 24 27 31 32 28 27 23 20 19 18 18 18 16 15 14 14 12 12 12 12 11 11 11 11 10 10 10 10 9 9 9 9 9 8 8 7
20 21 22 19 20 21 21 21 21 23 25 29 30 24 21 19 18 19 18 17 17 15 15 13 12 12 12 12 11 11 11 11 11 11 11 11 10 10 10 10 9 9 8 7
18 21 26 22 21 20 19 21 21 26 28 26 25 24 18 18 18 17 17 16 16 15 13 13 13 13 13 11 11 11 11 11 11 11 11 11 11 11 10 10 10 9 9 8
18 23 29 24 22 20 21 20 19 22 23 26 28 23 18 18 18 16 16 16 15 14 14 14 14 13 12 11 11 11 11 11 11 11 11 11 11 11 11 10 10 9 9 8
15 22 24 23 22 21 22 20 19 21 27 23 22 20 17 16 16 16 16 17 16 15 15 15 14 13 12 12 12 12 12 11 11 11 11 11 11 11 10 10 10 9 9 8
17 25 24 23 22 22 21 21 20 21 20 24 19 20 17 16 16 16 15 16 16 16 16 15 14 13 13 13 13 12 12 12 11 11 11 11 10 9 10 10 9 9 8 8
18 26 26 27 24 23 23 21 21 20 20 20 20 20 16 15 15 18 18 18 17 17 17 14 14 14 14 14 14 13 13 12 11 12 11 10 10 8 7 8 9 9 8 8
18 23 26 26 26 28 25 23 22 20 21 21 23 19 17 18 18 18 21 17 18 18 16 14 14 14 14 15 14 14 13 12 12 12 11 11 10 10 9 8 9 9 9 8
18 20 22 29 29 30 20 21 21 21 19 19 19 18 18 18 18 18 16 19 18 18 15 14 14 14 14 14 14 14 13 13 13 13 12 11 12 11 10 10 10 9 9 10
16 18 24 28 36 24 19 21 22 22 21 19 19 18 18 18 19 18 17 18 18 16 14 14 14 14 14 15 14 14 14 13 13 13 12 12 11 12 11 12 11 10 11 11
16 16 20 32 32 31 22 20 20 20 23 19 19 19 19 19 20 20 17 17 17 14 13 14 14 14 15 15 14 15 15 14 14 13 12 12 11 12 12 12 12 11 11 11
21 22 22 26 27 26 20 19 19 24 19 20 19 19 20 19 17 17 17 17 16 15 14 13 13 14 15 15 15 15 15 16 14 13 12 12 12 12 11 11 11 11 11 11
19 21 22 23 25 28 19 19 21 18 18 19 19 19 18 17 17 16 17 16 16 17 16 13 14 14 14 14 15 16 16 15 14 13 13 12 12 12 11 11 11 11 11 11
18 17 19 20 21 18 18 18 17 17 18 17 18 17 17 16 17 17 17 17 15 16 16 14 14 14 13 14 15 16 15 15 15 14 13 13 13 13 12 12 12 12 12 12
17 15 18 18 17 17 17 17 17 17 18 17 17 17 17 17 17 16 16 16 15 15 15 14 15 15 15 15 15 16 15 15 14 15 14 14 14 14 13 13 14 13 14 14
15 15 17 20 17 16 15 16 16 16 16 17 17 17 16 17 16 16 16 16 16 15 15 14 15 15 15 16 16 16 16 15 15 15 15 15 15 15 15 15 14 15 14 14
16 16 17 17 15 14 14 14 16 17 17 16 17 18 17 17 16 16 16 16 16 16 16 16 15 15 14 18 18 18 16 16 15 16 16 16 15 15 15 15 16 14 14 14